Time,TemperatureF,DewpointF,PressureIn,WindDirection,WindDirectionDegrees,WindSpeedMPH,WindSpeedGustMPH,Humidity,HourlyPrecipIn,Conditions,Clouds,dailyrainin,SolarRadiationWatts/m^2,SoftwareType,DateUTC
2013-01-20 00:05:00,3.4,-3.3,30.46,NNW,340,1.0,12.0,73,0.00,,,0.00,0.0,meteohub,2013-01-20 06:05:00,
2013-01-20 00:11:00,3.4,-3.3,30.47,NNE,14,2.0,13.0,73,0.00,,,0.00,0.0,meteohub,2013-01-20 06:11:00,
2013-01-20 00:17:00,3.4,-3.3,30.48,WNW,282,4.0,13.0,73,0.00,,,0.00,0.0,meteohub,2013-01-20 06:17:00,
2013-01-20 00:23:00,3.2,-3.5,30.48,NW,311,2.0,13.0,73,0.00,,,0.00,0.0,meteohub,2013-01-20 06:23:00,
2013-01-20 00:29:00,3.2,-3.5,30.49,West,274,2.0,13.0,73,0.00,,,0.00,0.0,meteohub,2013-01-20 06:29:00,
2013-01-20 00:36:00,3.0,-3.6,30.49,NW,313,2.0,13.0,73,0.00,,,0.00,0.0,meteohub,2013-01-20 06:36:00,
2013-01-20 00:42:00,3.0,-3.6,30.48,NNE,13,5.0,13.0,73,0.00,,,0.00,0.0,meteohub,2013-01-20 06:42:00,
2013-01-20 00:48:00,2.8,-3.8,30.49,NNW,335,2.0,17.0,73,0.00,,,0.00,0.0,meteohub,2013-01-20 06:48:00,
2013-01-20 00:54:00,2.7,-4.0,30.49,NW,313,1.0,17.0,73,0.00,,,0.00,0.0,meteohub,2013-01-20 06:54:00,
2013-01-20 01:00:00,2.7,-4.0,30.49,NW,306,2.0,17.0,73,0.00,,,0.00,0.0,meteohub,2013-01-20 07:00:00,
2013-01-20 01:07:00,2.7,-4.0,30.49,WNW,302,7.0,17.0,73,0.00,,,0.00,0.0,meteohub,2013-01-20 07:07:00,
2013-01-20 01:13:00,2.5,-4.2,30.50,NNW,346,1.0,17.0,73,0.00,,,0.00,0.0,meteohub,2013-01-20 07:13:00,
2013-01-20 01:19:00,2.5,-4.2,30.50,NNE,31,1.0,17.0,73,0.00,,,0.00,0.0,meteohub,2013-01-20 07:19:00,
2013-01-20 01:25:00,2.1,-4.5,30.50,NNW,335,4.0,11.0,73,0.00,,,0.00,0.0,meteohub,2013-01-20 07:25:00,
2013-01-20 01:31:00,2.1,-2.0,30.51,NNW,348,4.0,12.0,82,0.00,,,0.00,0.0,meteohub,2013-01-20 07:31:00,
2013-01-20 01:37:00,1.9,-4.7,30.51,WNW,301,3.0,12.0,73,0.00,,,0.00,0.0,meteohub,2013-01-20 07:37:00,
2013-01-20 01:44:00,1.9,-4.7,30.51,SW,224,4.0,11.0,73,0.00,,,0.00,0.0,meteohub,2013-01-20 07:44:00,
2013-01-20 01:50:00,1.9,-4.4,30.51,NW,317,5.0,12.0,74,0.00,,,0.00,0.0,meteohub,2013-01-20 07:50:00,
2013-01-20 01:56:00,1.9,-4.4,30.52,West,267,3.0,12.0,74,0.00,,,0.00,0.0,meteohub,2013-01-20 07:56:00,
2013-01-20 02:02:00,1.9,-4.4,30.52,NNE,32,5.0,11.0,74,0.00,,,0.00,0.0,meteohub,2013-01-20 08:02:00,
2013-01-20 02:08:00,1.9,-4.4,30.53,NW,317,3.0,11.0,74,0.00,,,0.00,0.0,meteohub,2013-01-20 08:08:00,
2013-01-20 02:15:00,1.9,-4.4,30.54,WNW,288,3.0,10.0,74,0.00,,,0.00,0.0,meteohub,2013-01-20 08:15:00,
2013-01-20 02:21:00,1.8,-4.5,30.54,West,281,1.0,10.0,74,0.00,,,0.00,0.0,meteohub,2013-01-20 08:21:00,
2013-01-20 02:27:00,1.6,-4.7,30.55,North,355,3.0,14.0,74,0.00,,,0.00,0.0,meteohub,2013-01-20 08:27:00,
2013-01-20 02:33:00,1.6,-4.7,30.56,NW,313,3.0,14.0,74,0.00,,,0.00,0.0,meteohub,2013-01-20 08:33:00,
2013-01-20 02:39:00,1.6,-4.7,30.56,North,350,5.0,11.0,74,0.00,,,0.00,0.0,meteohub,2013-01-20 08:39:00,
2013-01-20 02:45:00,1.6,-4.7,30.56,West,269,5.0,11.0,74,0.00,,,0.00,0.0,meteohub,2013-01-20 08:45:00,
2013-01-20 02:52:00,1.4,-4.9,30.56,WNW,286,8.0,10.0,74,0.00,,,0.00,0.0,meteohub,2013-01-20 08:52:00,
2013-01-20 02:58:00,1.2,-5.4,30.56,North,355,4.0,10.0,73,0.00,,,0.00,0.0,meteohub,2013-01-20 08:58:00,
2013-01-20 03:04:00,1.2,-5.1,30.57,NNW,345,2.0,10.0,74,0.00,,,0.00,0.0,meteohub,2013-01-20 09:04:00,
2013-01-20 03:10:00,1.0,-5.3,30.56,NNW,346,7.0,12.0,74,0.00,,,0.00,0.0,meteohub,2013-01-20 09:10:00,
2013-01-20 03:16:00,1.0,-5.3,30.58,NW,308,2.0,12.0,74,0.00,,,0.00,0.0,meteohub,2013-01-20 09:16:00,
2013-01-20 03:23:00,0.9,-5.4,30.58,NW,315,3.0,13.0,74,0.00,,,0.00,0.0,meteohub,2013-01-20 09:23:00,
2013-01-20 03:29:00,0.9,-5.4,30.58,NW,322,4.0,13.0,74,0.00,,,0.00,0.0,meteohub,2013-01-20 09:29:00,
2013-01-20 03:35:00,0.9,-5.4,30.58,NNW,347,3.0,17.0,74,0.00,,,0.00,0.0,meteohub,2013-01-20 09:35:00,
2013-01-20 03:41:00,0.9,-5.4,30.58,NW,323,4.0,11.0,74,0.00,,,0.00,0.0,meteohub,2013-01-20 09:41:00,
2013-01-20 03:47:00,0.7,-5.6,30.58,WNW,287,1.0,11.0,74,0.00,,,0.00,0.0,meteohub,2013-01-20 09:47:00,
2013-01-20 03:53:00,0.7,-5.6,30.57,NW,306,2.0,10.0,74,0.00,,,0.00,0.0,meteohub,2013-01-20 09:53:00,
2013-01-20 04:00:00,0.7,-5.6,30.58,NW,309,4.0,10.0,74,0.00,,,0.00,0.0,meteohub,2013-01-20 10:00:00,
2013-01-20 04:06:00,0.7,-5.6,30.59,West,277,4.0,10.0,74,0.00,,,0.00,0.0,meteohub,2013-01-20 10:06:00,
2013-01-20 04:12:00,0.7,-5.6,30.59,North,350,2.0,17.0,74,0.00,,,0.00,0.0,meteohub,2013-01-20 10:12:00,
2013-01-20 04:18:00,0.7,-5.6,30.59,NW,307,1.0,17.0,74,0.00,,,0.00,0.0,meteohub,2013-01-20 10:18:00,
2013-01-20 04:24:00,0.5,-5.8,30.59,NW,304,0.0,10.0,74,0.00,,,0.00,0.0,meteohub,2013-01-20 10:24:00,
2013-01-20 04:31:00,0.3,-6.0,30.59,NNW,333,3.0,11.0,74,0.00,,,0.00,0.0,meteohub,2013-01-20 10:31:00,
2013-01-20 04:37:00,0.3,-6.0,30.59,West,262,2.0,11.0,74,0.00,,,0.00,0.0,meteohub,2013-01-20 10:37:00,
2013-01-20 04:43:00,0.1,-6.2,30.58,North,355,2.0,11.0,74,0.00,,,0.00,0.0,meteohub,2013-01-20 10:43:00,
2013-01-20 04:49:00,0.1,-6.2,30.58,NW,319,3.0,11.0,74,0.00,,,0.00,0.0,meteohub,2013-01-20 10:49:00,
2013-01-20 04:55:00,0.1,-6.2,30.58,NNW,331,2.0,9.0,74,0.00,,,0.00,0.0,meteohub,2013-01-20 10:55:00,
2013-01-20 05:01:00,0.1,-6.2,30.58,North,355,2.0,9.0,74,0.00,,,0.00,0.0,meteohub,2013-01-20 11:01:00,
2013-01-20 05:08:00,0.1,-6.0,30.58,NNW,327,4.0,9.0,75,0.00,,,0.00,0.0,meteohub,2013-01-20 11:08:00,
2013-01-20 05:14:00,0.0,-6.0,30.58,NW,311,2.0,7.0,75,0.00,,,0.00,0.0,meteohub,2013-01-20 11:14:00,
2013-01-20 05:20:00,0.0,-6.0,30.59,WNW,295,2.0,7.0,75,0.00,,,0.00,0.0,meteohub,2013-01-20 11:20:00,
2013-01-20 05:26:00,0.0,-6.0,30.59,NW,319,0.0,7.0,75,0.00,,,0.00,0.0,meteohub,2013-01-20 11:26:00,
2013-01-20 05:32:00,0.0,-6.0,30.59,NW,310,2.0,9.0,75,0.00,,,0.00,0.0,meteohub,2013-01-20 11:32:00,
2013-01-20 05:37:00,-0.2,-6.2,30.59,NNW,344,3.0,9.0,75,0.00,,,0.00,0.0,meteohub,2013-01-20 11:37:00,
2013-01-20 05:43:00,-0.2,-6.2,30.59,NW,322,0.0,9.0,75,0.00,,,0.00,0.0,meteohub,2013-01-20 11:43:00,
2013-01-20 05:49:00,-0.2,-6.2,30.59,NW,325,2.0,9.0,75,0.00,,,0.00,0.0,meteohub,2013-01-20 11:49:00,
2013-01-20 05:56:00,-0.2,-6.2,30.59,North,9,3.0,6.0,75,0.00,,,0.00,0.0,meteohub,2013-01-20 11:56:00,
2013-01-20 06:02:00,-0.2,-6.2,30.59,NNW,328,3.0,6.0,75,0.00,,,0.00,0.0,meteohub,2013-01-20 12:02:00,
2013-01-20 06:08:00,-0.2,-6.0,30.60,NNW,333,1.0,6.0,76,0.00,,,0.00,0.0,meteohub,2013-01-20 12:08:00,
2013-01-20 06:14:00,-0.2,-6.0,30.60,North,355,3.0,7.0,76,0.00,,,0.00,0.0,meteohub,2013-01-20 12:14:00,
2013-01-20 06:20:00,-0.2,-6.2,30.61,NNW,333,3.0,7.0,75,0.00,,,0.00,0.0,meteohub,2013-01-20 12:20:00,
2013-01-20 06:27:00,-0.2,-6.0,30.60,NW,325,0.0,7.0,76,0.00,,,0.00,0.0,meteohub,2013-01-20 12:27:00,
2013-01-20 06:33:00,0.0,-5.8,30.60,NNW,346,1.0,7.0,76,0.00,,,0.00,0.0,meteohub,2013-01-20 12:33:00,
2013-01-20 06:39:00,0.0,-5.8,30.60,NNE,16,2.0,7.0,76,0.00,,,0.00,0.0,meteohub,2013-01-20 12:39:00,
2013-01-20 06:46:00,0.0,-5.8,30.60,WNW,288,7.0,7.0,76,0.00,,,0.00,0.0,meteohub,2013-01-20 12:46:00,
2013-01-20 06:52:00,0.0,-5.8,30.61,WNW,295,2.0,7.0,76,0.00,,,0.00,0.0,meteohub,2013-01-20 12:52:00,
2013-01-20 06:58:00,0.0,-5.8,30.61,NW,318,3.0,7.0,76,0.00,,,0.00,0.0,meteohub,2013-01-20 12:58:00,
2013-01-20 07:04:00,0.0,-5.8,30.61,NW,317,0.0,7.0,76,0.00,,,0.00,0.0,meteohub,2013-01-20 13:04:00,
2013-01-20 07:11:00,0.0,-5.8,30.61,NW,321,3.0,7.0,76,0.00,,,0.00,0.0,meteohub,2013-01-20 13:11:00,
2013-01-20 07:17:00,0.0,-5.8,30.61,NNW,346,1.0,7.0,76,0.00,,,0.00,0.0,meteohub,2013-01-20 13:17:00,
2013-01-20 07:23:00,0.0,-5.8,30.62,NNW,342,2.0,6.0,76,0.00,,,0.00,0.0,meteohub,2013-01-20 13:23:00,
2013-01-20 07:29:00,0.0,-5.8,30.62,WNW,298,1.0,5.0,76,0.00,,,0.00,0.0,meteohub,2013-01-20 13:29:00,
2013-01-20 07:35:00,0.0,-5.4,30.61,North,355,1.0,5.0,77,0.00,,,0.00,5.0,meteohub,2013-01-20 13:35:00,
2013-01-20 07:42:00,0.0,-5.8,30.61,NW,307,1.0,5.0,76,0.00,,,0.00,0.0,meteohub,2013-01-20 13:42:00,
2013-01-20 07:47:00,0.0,-5.8,30.61,NW,315,1.0,5.0,76,0.00,,,0.00,5.0,meteohub,2013-01-20 13:47:00,
2013-01-20 07:52:00,0.0,-5.8,30.61,North,5,3.0,5.0,76,0.00,,,0.00,7.0,meteohub,2013-01-20 13:52:00,
2013-01-20 07:58:00,0.0,-6.0,30.61,West,274,3.0,5.0,75,0.00,,,0.00,12.0,meteohub,2013-01-20 13:58:00,
2013-01-20 08:04:00,0.0,-5.8,30.62,NNW,342,2.0,6.0,76,0.00,,,0.00,19.0,meteohub,2013-01-20 14:04:00,
2013-01-20 08:11:00,0.0,-6.0,30.62,NW,309,1.0,6.0,75,0.00,,,0.00,26.0,meteohub,2013-01-20 14:11:00,
2013-01-20 08:17:00,0.0,-6.0,30.62,West,279,1.0,6.0,75,0.00,,,0.00,39.0,meteohub,2013-01-20 14:17:00,
2013-01-20 08:23:00,0.0,-6.0,30.63,North,5,0.0,6.0,75,0.00,,,0.00,49.0,meteohub,2013-01-20 14:23:00,
2013-01-20 08:29:00,0.1,-6.0,30.63,NW,308,2.0,6.0,75,0.00,,,0.00,47.0,meteohub,2013-01-20 14:29:00,
2013-01-20 08:35:00,0.3,-5.8,30.63,NW,314,2.0,6.0,75,0.00,,,0.00,54.0,meteohub,2013-01-20 14:35:00,
2013-01-20 08:42:00,0.7,-5.4,30.64,WSW,252,1.0,6.0,75,0.00,,,0.00,51.0,meteohub,2013-01-20 14:42:00,
2013-01-20 08:47:00,0.9,-5.3,30.64,NNW,338,2.0,6.0,75,0.00,,,0.00,58.0,meteohub,2013-01-20 14:47:00,
2013-01-20 08:52:00,0.9,-5.4,30.64,WNW,288,1.0,6.0,74,0.00,,,0.00,54.0,meteohub,2013-01-20 14:52:00,
2013-01-20 08:58:00,0.9,-5.4,30.64,NW,310,3.0,7.0,74,0.00,,,0.00,63.0,meteohub,2013-01-20 14:58:00,
2013-01-20 09:04:00,0.9,-5.8,30.65,WNW,286,1.0,7.0,73,0.00,,,0.00,134.0,meteohub,2013-01-20 15:04:00,
2013-01-20 09:10:00,1.2,-5.4,30.65,West,281,3.0,8.0,73,0.00,,,0.00,142.0,meteohub,2013-01-20 15:10:00,
2013-01-20 09:17:00,1.8,-4.9,30.65,West,277,1.0,8.0,73,0.00,,,0.00,127.0,meteohub,2013-01-20 15:17:00,
2013-01-20 09:23:00,1.9,-5.1,30.65,WSW,256,4.0,6.0,72,0.00,,,0.00,165.0,meteohub,2013-01-20 15:23:00,
2013-01-20 09:29:00,2.1,-5.1,30.66,North,9,3.0,6.0,71,0.00,,,0.00,260.0,meteohub,2013-01-20 15:29:00,
2013-01-20 09:35:00,2.5,-5.4,30.66,NW,321,2.0,12.0,69,0.00,,,0.00,146.0,meteohub,2013-01-20 15:35:00,
2013-01-20 09:41:00,2.1,-5.6,30.66,NW,309,1.0,8.0,69,0.00,,,0.00,141.0,meteohub,2013-01-20 15:41:00,
2013-01-20 09:47:00,2.5,-5.4,30.66,NNW,329,1.0,8.0,69,0.00,,,0.00,237.0,meteohub,2013-01-20 15:47:00,
2013-01-20 09:52:00,2.8,-5.1,30.66,NW,324,3.0,9.0,69,0.00,,,0.00,258.0,meteohub,2013-01-20 15:52:00,
2013-01-20 09:58:00,3.4,-4.7,30.66,WNW,285,3.0,9.0,68,0.00,,,0.00,309.0,meteohub,2013-01-20 15:58:00,
2013-01-20 10:04:00,3.9,-4.5,30.67,West,274,3.0,11.0,67,0.00,,,0.00,346.0,meteohub,2013-01-20 16:04:00,
2013-01-20 10:10:00,3.9,-4.9,30.67,NNW,345,4.0,11.0,66,0.00,,,0.00,294.0,meteohub,2013-01-20 16:10:00,
2013-01-20 10:16:00,4.3,-4.5,30.67,West,261,2.0,11.0,66,0.00,,,0.00,381.0,meteohub,2013-01-20 16:16:00,
2013-01-20 10:23:00,4.8,-3.6,30.67,WNW,296,5.0,11.0,67,0.00,,,0.00,350.0,meteohub,2013-01-20 16:23:00,
2013-01-20 10:29:00,5.2,-3.6,30.67,West,271,1.0,8.0,66,0.00,,,0.00,380.0,meteohub,2013-01-20 16:29:00,
2013-01-20 10:35:00,4.8,-4.0,30.67,NW,317,2.0,8.0,66,0.00,,,0.00,323.0,meteohub,2013-01-20 16:35:00,
2013-01-20 10:41:00,5.4,-3.5,30.68,NW,319,4.0,9.0,66,0.00,,,0.00,378.0,meteohub,2013-01-20 16:41:00,
2013-01-20 10:47:00,5.2,-4.0,30.68,WSW,258,3.0,10.0,65,0.00,,,0.00,346.0,meteohub,2013-01-20 16:47:00,
2013-01-20 10:53:00,4.6,-4.2,30.67,North,5,6.0,10.0,66,0.00,,,0.00,313.0,meteohub,2013-01-20 16:53:00,
2013-01-20 11:00:00,5.2,-1.3,30.67,West,278,4.0,10.0,74,0.00,,,0.00,371.0,meteohub,2013-01-20 17:00:00,
2013-01-20 11:06:00,5.7,-3.1,30.67,NW,324,3.0,10.0,66,0.00,,,0.00,401.0,meteohub,2013-01-20 17:06:00,
2013-01-20 11:12:00,6.1,-3.1,30.67,West,262,7.0,11.0,65,0.00,,,0.00,413.0,meteohub,2013-01-20 17:12:00,
2013-01-20 11:18:00,6.3,-2.9,30.66,NW,304,5.0,11.0,65,0.00,,,0.00,406.0,meteohub,2013-01-20 17:18:00,
2013-01-20 11:24:00,6.6,-2.6,30.66,NNW,337,3.0,11.0,65,0.00,,,0.00,429.0,meteohub,2013-01-20 17:24:00,
2013-01-20 11:30:00,6.8,-2.7,30.65,NW,312,4.0,8.0,64,0.00,,,0.00,418.0,meteohub,2013-01-20 17:30:00,
2013-01-20 11:37:00,7.0,-2.9,30.65,North,0,2.0,8.0,63,0.00,,,0.00,267.0,meteohub,2013-01-20 17:37:00,
2013-01-20 11:43:00,6.8,-3.1,30.65,West,260,4.0,8.0,63,0.00,,,0.00,378.0,meteohub,2013-01-20 17:43:00,
2013-01-20 11:49:00,6.8,-3.5,30.65,WSW,252,5.0,8.0,62,0.00,,,0.00,476.0,meteohub,2013-01-20 17:49:00,
2013-01-20 11:55:00,7.2,-2.4,30.64,NNW,327,2.0,9.0,64,0.00,,,0.00,501.0,meteohub,2013-01-20 17:55:00,
2013-01-20 12:01:00,7.2,-3.1,30.64,NNW,341,2.0,12.0,62,0.00,,,0.00,283.0,meteohub,2013-01-20 18:01:00,
2013-01-20 12:07:00,7.0,-3.3,30.63,West,269,2.0,12.0,62,0.00,,,0.00,346.0,meteohub,2013-01-20 18:07:00,
2013-01-20 12:14:00,7.2,-3.5,30.63,WNW,285,8.0,12.0,61,0.00,,,0.00,288.0,meteohub,2013-01-20 18:14:00,
2013-01-20 12:20:00,7.9,-2.7,30.63,WSW,250,4.0,12.0,61,0.00,,,0.00,338.0,meteohub,2013-01-20 18:20:00,
2013-01-20 12:26:00,8.1,-2.6,30.63,WSW,237,5.0,12.0,61,0.00,,,0.00,357.0,meteohub,2013-01-20 18:26:00,
2013-01-20 12:32:00,8.1,-2.9,30.63,West,267,3.0,12.0,60,0.00,,,0.00,269.0,meteohub,2013-01-20 18:32:00,
2013-01-20 12:39:00,7.9,-3.8,30.63,West,260,6.0,12.0,58,0.00,,,0.00,276.0,meteohub,2013-01-20 18:39:00,
2013-01-20 12:45:00,7.9,-3.5,30.62,NW,306,5.0,11.0,59,0.00,,,0.00,197.0,meteohub,2013-01-20 18:45:00,
2013-01-20 12:51:00,7.9,-3.1,30.62,NNW,340,5.0,11.0,60,0.00,,,0.00,443.0,meteohub,2013-01-20 18:51:00,
2013-01-20 12:57:00,8.2,-2.7,30.62,SSW,211,1.0,11.0,60,0.00,,,0.00,471.0,meteohub,2013-01-20 18:57:00,
2013-01-20 13:03:00,9.0,-2.0,30.62,SW,227,7.0,8.0,60,0.00,,,0.00,443.0,meteohub,2013-01-20 19:03:00,
2013-01-20 13:10:00,8.8,-2.9,30.62,NNW,340,3.0,8.0,58,0.00,,,0.00,438.0,meteohub,2013-01-20 19:10:00,
2013-01-20 13:16:00,8.4,-3.6,30.62,NW,322,0.0,13.0,57,0.00,,,0.00,432.0,meteohub,2013-01-20 19:16:00,
2013-01-20 13:22:00,8.2,-3.5,30.61,NNW,330,2.0,13.0,58,0.00,,,0.00,448.0,meteohub,2013-01-20 19:22:00,
2013-01-20 13:28:00,8.4,-2.9,30.61,NNW,330,2.0,13.0,59,0.00,,,0.00,397.0,meteohub,2013-01-20 19:28:00,
2013-01-20 13:34:00,8.6,-3.1,30.61,WSW,250,4.0,13.0,58,0.00,,,0.00,316.0,meteohub,2013-01-20 19:34:00,
2013-01-20 13:40:00,9.0,-2.7,30.60,WSW,252,3.0,13.0,58,0.00,,,0.00,316.0,meteohub,2013-01-20 19:40:00,
2013-01-20 13:47:00,9.1,-2.9,30.60,NW,306,0.0,12.0,57,0.00,,,0.00,292.0,meteohub,2013-01-20 19:47:00,
2013-01-20 13:53:00,8.8,-2.9,30.60,West,262,3.0,12.0,58,0.00,,,0.00,278.0,meteohub,2013-01-20 19:53:00,
2013-01-20 13:59:00,8.2,-3.8,30.60,WNW,300,2.0,13.0,57,0.00,,,0.00,186.0,meteohub,2013-01-20 19:59:00,
2013-01-20 14:05:00,8.1,-3.6,30.60,NNW,332,3.0,13.0,58,0.00,,,0.00,264.0,meteohub,2013-01-20 20:05:00,
2013-01-20 14:11:00,8.2,-3.1,30.59,NW,304,2.0,10.0,59,0.00,,,0.00,248.0,meteohub,2013-01-20 20:11:00,
2013-01-20 14:17:00,8.8,-2.6,30.58,WNW,284,5.0,10.0,59,0.00,,,0.00,369.0,meteohub,2013-01-20 20:17:00,
2013-01-20 14:22:00,9.5,-2.0,30.58,SW,230,4.0,9.0,59,0.00,,,0.00,329.0,meteohub,2013-01-20 20:22:00,
2013-01-20 14:28:00,9.7,-2.6,30.58,West,268,4.0,9.0,57,0.00,,,0.00,243.0,meteohub,2013-01-20 20:28:00,
2013-01-20 14:34:00,9.5,-3.1,30.57,NW,304,6.0,13.0,56,0.00,,,0.00,190.0,meteohub,2013-01-20 20:34:00,
2013-01-20 14:40:00,9.1,-2.6,30.57,WSW,257,2.0,11.0,58,0.00,,,0.00,179.0,meteohub,2013-01-20 20:40:00,
2013-01-20 14:46:00,9.3,-2.0,30.57,West,272,5.0,11.0,59,0.00,,,0.00,227.0,meteohub,2013-01-20 20:46:00,
2013-01-20 14:53:00,9.3,-2.0,30.58,WNW,286,6.0,10.0,59,0.00,,,0.00,160.0,meteohub,2013-01-20 20:53:00,
2013-01-20 14:59:00,9.1,-2.2,30.58,West,281,2.0,10.0,59,0.00,,,0.00,223.0,meteohub,2013-01-20 20:59:00,
2013-01-20 15:05:00,9.1,-1.8,30.58,West,264,5.0,13.0,60,0.00,,,0.00,165.0,meteohub,2013-01-20 21:05:00,
2013-01-20 15:11:00,9.1,-1.8,30.58,West,281,4.0,13.0,60,0.00,,,0.00,158.0,meteohub,2013-01-20 21:11:00,
2013-01-20 15:17:00,9.0,-1.7,30.58,West,277,2.0,15.0,61,0.00,,,0.00,134.0,meteohub,2013-01-20 21:17:00,
2013-01-20 15:22:00,9.0,-1.7,30.58,NW,325,1.0,15.0,61,0.00,,,0.00,127.0,meteohub,2013-01-20 21:22:00,
2013-01-20 15:28:00,9.0,-1.7,30.58,WNW,282,0.0,9.0,61,0.00,,,0.00,111.0,meteohub,2013-01-20 21:28:00,
2013-01-20 15:34:00,8.8,-1.7,30.58,WNW,285,2.0,9.0,62,0.00,,,0.00,95.0,meteohub,2013-01-20 21:34:00,
2013-01-20 15:40:00,8.6,-1.7,30.58,NNW,336,3.0,11.0,62,0.00,,,0.00,91.0,meteohub,2013-01-20 21:40:00,
2013-01-20 15:46:00,8.4,-1.7,30.58,West,270,5.0,8.0,63,0.00,,,0.00,83.0,meteohub,2013-01-20 21:46:00,
2013-01-20 15:53:00,8.4,-1.7,30.58,WSW,256,7.0,8.0,63,0.00,,,0.00,65.0,meteohub,2013-01-20 21:53:00,
2013-01-20 15:59:00,8.2,-1.5,30.58,WNW,298,4.0,14.0,64,0.00,,,0.00,65.0,meteohub,2013-01-20 21:59:00,
2013-01-20 16:05:00,8.1,-1.3,30.58,NW,311,1.0,14.0,65,0.00,,,0.00,53.0,meteohub,2013-01-20 22:05:00,
2013-01-20 16:11:00,8.1,-0.9,30.58,West,278,2.0,10.0,66,0.00,,,0.00,63.0,meteohub,2013-01-20 22:11:00,
2013-01-20 16:17:00,7.9,-0.8,30.58,West,277,5.0,10.0,67,0.00,,,0.00,33.0,meteohub,2013-01-20 22:17:00,
2013-01-20 16:22:00,7.9,-0.4,30.58,NW,311,1.0,11.0,68,0.00,,,0.00,30.0,meteohub,2013-01-20 22:22:00,
2013-01-20 16:28:00,7.9,-0.4,30.58,NNW,340,3.0,11.0,68,0.00,,,0.00,33.0,meteohub,2013-01-20 22:28:00,
2013-01-20 16:34:00,7.5,-0.2,30.58,West,265,2.0,7.0,70,0.00,,,0.00,23.0,meteohub,2013-01-20 22:34:00,
2013-01-20 16:40:00,7.3,0.0,30.58,West,265,2.0,15.0,71,0.00,,,0.00,16.0,meteohub,2013-01-20 22:40:00,
2013-01-20 16:47:00,7.2,-0.2,30.58,NW,310,2.0,15.0,71,0.00,,,0.00,12.0,meteohub,2013-01-20 22:47:00,
2013-01-20 16:53:00,7.2,-0.2,30.58,WNW,282,1.0,10.0,71,0.00,,,0.00,9.0,meteohub,2013-01-20 22:53:00,
2013-01-20 16:59:00,7.2,0.3,30.58,WSW,251,6.0,10.0,73,0.00,,,0.00,7.0,meteohub,2013-01-20 22:59:00,
2013-01-20 17:06:00,7.2,0.0,30.58,NNW,334,3.0,12.0,72,0.00,,,0.00,5.0,meteohub,2013-01-20 23:06:00,
2013-01-20 17:12:00,7.2,-0.9,30.57,West,273,1.0,12.0,69,0.00,,,0.00,0.0,meteohub,2013-01-20 23:12:00,
2013-01-20 17:18:00,7.0,-0.8,30.57,WSW,240,2.0,14.0,70,0.00,,,0.00,0.0,meteohub,2013-01-20 23:18:00,
2013-01-20 17:24:00,7.0,-0.8,30.57,WNW,292,2.0,14.0,70,0.00,,,0.00,0.0,meteohub,2013-01-20 23:24:00,
2013-01-20 17:31:00,6.8,-0.9,30.57,NW,304,3.0,9.0,70,0.00,,,0.00,0.0,meteohub,2013-01-20 23:31:00,
2013-01-20 17:37:00,6.6,-0.8,30.57,WSW,255,8.0,9.0,71,0.00,,,0.00,0.0,meteohub,2013-01-20 23:37:00,
2013-01-20 17:43:00,6.4,-0.6,30.57,WNW,287,4.0,9.0,72,0.00,,,0.00,0.0,meteohub,2013-01-20 23:43:00,
2013-01-20 17:49:00,6.3,-0.6,30.57,WSW,243,1.0,9.0,73,0.00,,,0.00,0.0,meteohub,2013-01-20 23:49:00,
2013-01-20 17:55:00,6.3,-0.2,30.57,West,267,0.0,7.0,74,0.00,,,0.00,0.0,meteohub,2013-01-20 23:55:00,
2013-01-20 18:02:00,6.1,-0.4,30.56,NW,311,6.0,7.0,74,0.00,,,0.00,0.0,meteohub,2013-01-21 00:02:00,
2013-01-20 18:08:00,6.1,-0.4,30.57,WSW,248,1.0,7.0,74,0.00,,,0.00,0.0,meteohub,2013-01-21 00:08:00,
2013-01-20 18:14:00,6.1,-0.2,30.57,NW,304,7.0,9.0,75,0.00,,,0.00,0.0,meteohub,2013-01-21 00:14:00,
2013-01-20 18:20:00,6.1,-0.2,30.56,West,268,2.0,9.0,75,0.00,,,0.00,0.0,meteohub,2013-01-21 00:20:00,
2013-01-20 18:27:00,6.1,0.1,30.56,West,279,5.0,10.0,76,0.00,,,0.00,0.0,meteohub,2013-01-21 00:27:00,
2013-01-20 18:32:00,6.1,0.1,30.56,North,355,1.0,10.0,76,0.00,,,0.00,0.0,meteohub,2013-01-21 00:32:00,
2013-01-20 18:37:00,6.1,0.5,30.56,West,269,1.0,10.0,77,0.00,,,0.00,0.0,meteohub,2013-01-21 00:37:00,
2013-01-20 18:43:00,6.1,0.7,30.56,WNW,300,3.0,10.0,78,0.00,,,0.00,0.0,meteohub,2013-01-21 00:43:00,
2013-01-20 18:50:00,6.3,0.9,30.56,WNW,288,1.0,9.0,78,0.00,,,0.00,0.0,meteohub,2013-01-21 00:50:00,
2013-01-20 18:56:00,6.3,1.2,30.56,West,277,4.0,9.0,79,0.00,,,0.00,0.0,meteohub,2013-01-21 00:56:00,
2013-01-20 19:02:00,6.3,1.2,30.56,WSW,242,4.0,9.0,79,0.00,,,0.00,0.0,meteohub,2013-01-21 01:02:00,
2013-01-20 19:07:00,6.3,0.9,30.56,WNW,303,5.0,8.0,78,0.00,,,0.00,0.0,meteohub,2013-01-21 01:07:00,
2013-01-20 19:13:00,6.3,0.7,30.56,WSW,254,1.0,8.0,77,0.00,,,0.00,0.0,meteohub,2013-01-21 01:13:00,
2013-01-20 19:19:00,6.3,0.3,30.56,WNW,283,2.0,8.0,76,0.00,,,0.00,0.0,meteohub,2013-01-21 01:19:00,
2013-01-20 19:26:00,6.1,-0.2,30.56,West,264,4.0,16.0,75,0.00,,,0.00,0.0,meteohub,2013-01-21 01:26:00,
2013-01-20 19:32:00,6.1,-0.4,30.55,WNW,300,7.0,11.0,74,0.00,,,0.00,0.0,meteohub,2013-01-21 01:32:00,
2013-01-20 19:38:00,5.7,-1.3,30.55,WNW,298,3.0,11.0,72,0.00,,,0.00,0.0,meteohub,2013-01-21 01:38:00,
2013-01-20 19:44:00,5.5,-1.8,30.55,WNW,287,2.0,21.0,71,0.00,,,0.00,0.0,meteohub,2013-01-21 01:44:00,
2013-01-20 19:51:00,5.4,-2.0,30.55,West,266,4.0,12.0,71,0.00,,,0.00,0.0,meteohub,2013-01-21 01:51:00,
2013-01-20 19:57:00,5.2,-1.8,30.55,West,279,3.0,12.0,72,0.00,,,0.00,0.0,meteohub,2013-01-21 01:57:00,
2013-01-20 20:03:00,5.2,-1.7,30.56,WSW,252,2.0,9.0,73,0.00,,,0.00,0.0,meteohub,2013-01-21 02:03:00,
2013-01-20 20:09:00,4.6,-2.7,30.56,West,272,5.0,9.0,71,0.00,,,0.00,0.0,meteohub,2013-01-21 02:09:00,
2013-01-20 20:15:00,4.3,-3.6,30.56,NNW,346,1.0,21.0,69,0.00,,,0.00,0.0,meteohub,2013-01-21 02:15:00,
2013-01-20 20:22:00,3.7,-4.5,30.56,WSW,254,2.0,21.0,68,0.00,,,0.00,0.0,meteohub,2013-01-21 02:22:00,
2013-01-20 20:28:00,3.6,-4.5,30.55,North,5,5.0,14.0,68,0.00,,,0.00,0.0,meteohub,2013-01-21 02:28:00,
2013-01-20 20:34:00,3.2,-4.7,30.55,West,273,1.0,14.0,69,0.00,,,0.00,0.0,meteohub,2013-01-21 02:34:00,
2013-01-20 20:41:00,3.0,-4.9,30.55,West,269,1.0,16.0,69,0.00,,,0.00,0.0,meteohub,2013-01-21 02:41:00,
2013-01-20 20:47:00,2.8,-5.1,30.55,West,281,2.0,10.0,69,0.00,,,0.00,0.0,meteohub,2013-01-21 02:47:00,
2013-01-20 20:53:00,2.7,-5.3,30.56,NNW,331,6.0,10.0,69,0.00,,,0.00,0.0,meteohub,2013-01-21 02:53:00,
2013-01-20 21:00:00,2.5,-5.4,30.55,WNW,288,6.0,8.0,69,0.00,,,0.00,0.0,meteohub,2013-01-21 03:00:00,
2013-01-20 21:06:00,2.5,-5.4,30.55,West,265,9.0,9.0,69,0.00,,,0.00,0.0,meteohub,2013-01-21 03:06:00,
2013-01-20 21:12:00,2.3,-5.6,30.55,NW,306,1.0,9.0,69,0.00,,,0.00,0.0,meteohub,2013-01-21 03:12:00,
2013-01-20 21:18:00,2.1,-5.4,30.55,NNW,332,2.0,9.0,70,0.00,,,0.00,0.0,meteohub,2013-01-21 03:18:00,
2013-01-20 21:25:00,1.9,-5.6,30.55,NNW,333,3.0,12.0,70,0.00,,,0.00,0.0,meteohub,2013-01-21 03:25:00,
2013-01-20 21:31:00,1.9,-5.6,30.55,NNW,328,4.0,10.0,70,0.00,,,0.00,0.0,meteohub,2013-01-21 03:31:00,
2013-01-20 21:37:00,1.9,-5.6,30.55,West,261,6.0,10.0,70,0.00,,,0.00,0.0,meteohub,2013-01-21 03:37:00,
2013-01-20 21:43:00,1.9,-5.3,30.55,NW,321,7.0,10.0,71,0.00,,,0.00,0.0,meteohub,2013-01-21 03:43:00,
2013-01-20 21:49:00,1.8,-5.8,30.55,NW,315,2.0,10.0,70,0.00,,,0.00,0.0,meteohub,2013-01-21 03:49:00,
2013-01-20 21:56:00,1.8,-5.4,30.55,NW,305,5.0,11.0,71,0.00,,,0.00,0.0,meteohub,2013-01-21 03:56:00,
2013-01-20 22:02:00,1.6,-6.0,30.56,NW,325,5.0,13.0,70,0.00,,,0.00,0.0,meteohub,2013-01-21 04:02:00,
2013-01-20 22:08:00,1.2,-6.3,30.56,NNW,337,4.0,13.0,70,0.00,,,0.00,0.0,meteohub,2013-01-21 04:08:00,
2013-01-20 22:14:00,1.0,-6.5,30.56,North,355,7.0,13.0,70,0.00,,,0.00,0.0,meteohub,2013-01-21 04:14:00,
2013-01-20 22:21:00,0.9,-6.3,30.57,NNW,348,4.0,20.0,71,0.00,,,0.00,0.0,meteohub,2013-01-21 04:21:00,
2013-01-20 22:27:00,0.7,-6.5,30.57,WSW,242,2.0,17.0,71,0.00,,,0.00,0.0,meteohub,2013-01-21 04:27:00,
2013-01-20 22:33:00,0.3,-6.9,30.57,West,266,3.0,17.0,71,0.00,,,0.00,0.0,meteohub,2013-01-21 04:33:00,
2013-01-20 22:39:00,0.1,-7.2,30.57,SW,232,5.0,17.0,70,0.00,,,0.00,0.0,meteohub,2013-01-21 04:39:00,
2013-01-20 22:46:00,0.0,-7.4,30.58,NW,316,1.0,17.0,70,0.00,,,0.00,0.0,meteohub,2013-01-21 04:46:00,
2013-01-20 22:52:00,-0.2,-8.0,30.58,WNW,288,4.0,10.0,69,0.00,,,0.00,0.0,meteohub,2013-01-21 04:52:00,
2013-01-20 22:58:00,-0.4,-8.5,30.58,NW,318,1.0,12.0,68,0.00,,,0.00,0.0,meteohub,2013-01-21 04:58:00,
2013-01-20 23:03:00,-0.6,-8.9,30.57,NW,309,4.0,12.0,67,0.00,,,0.00,0.0,meteohub,2013-01-21 05:03:00,
2013-01-20 23:08:00,-0.6,-8.7,30.57,WNW,302,3.0,12.0,68,0.00,,,0.00,0.0,meteohub,2013-01-21 05:08:00,
2013-01-20 23:12:00,-0.8,-8.9,30.58,NNW,329,1.0,12.0,68,0.00,,,0.00,0.0,meteohub,2013-01-21 05:12:00,
2013-01-20 23:18:00,-0.8,-8.9,30.58,North,5,5.0,12.0,68,0.00,,,0.00,0.0,meteohub,2013-01-21 05:18:00,
2013-01-20 23:24:00,-0.8,-8.9,30.58,NW,321,1.0,12.0,68,0.00,,,0.00,0.0,meteohub,2013-01-21 05:24:00,
2013-01-20 23:31:00,-0.9,-8.7,30.57,NNE,26,5.0,11.0,69,0.00,,,0.00,0.0,meteohub,2013-01-21 05:31:00,
2013-01-20 23:37:00,-0.9,-8.9,30.58,West,281,3.0,11.0,68,0.00,,,0.00,0.0,meteohub,2013-01-21 05:37:00,
2013-01-20 23:43:00,-0.9,-8.7,30.58,WNW,292,8.0,9.0,69,0.00,,,0.00,0.0,meteohub,2013-01-21 05:43:00,
2013-01-20 23:49:00,-1.1,-9.0,30.58,NNW,341,2.0,11.0,68,0.00,,,0.00,0.0,meteohub,2013-01-21 05:49:00,
2013-01-20 23:56:00,-1.1,-9.0,30.58,North,355,6.0,11.0,68,0.00,,,0.00,0.0,meteohub,2013-01-21 05:56:00,